Location: Miami
(25.7742°N, 80.1936°W)
Time: 01:33:06
(UTC-04:00)

ISS - Pass Details

Date: 16 June 2025
Orbit: 413 x 417 km, 51.6° (Epoch: 16 July)

Event Time Altitude Azimuth Distance (km) Brightness Sun altitude
Exits shadow 04:43:16 10° 139° (SE) 1,516 -0.9 -20.7°
Reaches altitude 10° 04:43:41 10° 131° (SE) 1,483 -0.9 -20.7°
Maximum altitude 04:44:07 10° 124° (SE) 1,472 -0.8 -20.6°
Drops below altitude 10° 04:44:33 10° 116° (ESE) 1,485 -0.7 -20.5°
Sets 04:48:26 0° 71° (ENE) 2,354 1.3 -19.9°
